Columbus, OH

4:22 AM EDT on August 29, 2016 (GMT -0400)
Port Columbus International

Weather History for KCMH - May, 2013

Change the Weather History Date:

Saturday, May 4, 2013

  Actual Average Record
Temperature  
Mean Temperature 64 °F 59 °F  
Max Temperature 72 °F 70 °F 89 °F (1955)
Min Temperature 56 °F 49 °F 31 °F (1966)
Degree Days  
Heating Degree Days 1 7  
Month to date heating degree days 1 29  
Since 1 July heating degree days 5058 5111  
Cooling Degree Days 0 1  
Month to date cooling degree days 11 4  
Year to date cooling degree days 34 16  
Growing Degree Days 14 (Base 50)    
Moisture  
Dew Point 43 °F    
Average Humidity 49    
Maximum Humidity 61    
Minimum Humidity 37    
Precipitation  
Precipitation 0.00 in 0.13 in 1.44 in (1990)
Month to date precipitation 0.00 0.49  
Year to date precipitation 10.85 11.89  
Snow  
Snow 0.00 in 0.00 in 0.00 in ()
Month to date snowfall 0.0 0.0  
Since 1 July snowfall 41.2 26.7  
Snow Depth 0.00 in    
Sea Level Pressure  
Sea Level Pressure 30.04 in    
Wind  
Wind Speed 12 mph (ESE)    
Max Wind Speed 22 mph    
Max Gust Speed 26 mph    
Visibility 10 miles    
Events      
T = Trace of Precipitation, MM = Missing Value Source: NWS Daily Summary

Daily Weather History Graph

Daily Weather History Graph

Search for Another Location

Airport or City:

Trip Planner

Search our weather history database for the weather conditions in past years. The results will help you decide how hot, cold, wet, or windy it might be!

Date:

Astronomy

May. 04, 2013 Rise Set
Actual Time 6:27 AM EDT 8:29 PM EDT
Civil Twilight 5:58 AM EDT 8:59 PM EDT
Nautical Twilight 5:21 AM EDT 9:35 PM EDT
Astronomical Twilight 4:42 AM EDT 10:14 PM EDT
Moon 3:25 AM EDT (5/4) 3:26 PM EDT (5/4)
Length of Visible Light 15h 01m
Length of Day
14h 01m
Waning Crescent, 27% of the Moon is Illuminated
May 4
Waning Crescent
May 9
New
May 18
First Quarter
May 25
Full
May 31
Last Quarter

Hourly Weather History & Observations

Time (EDT) Temp. Dew Point Humidity Pressure Visibility Wind Dir Wind Speed Gust Speed Precip Events Conditions
12:51 AM 64.0 °F 42.1 °F 45% 30.07 in 10.0 mi SE 11.5 mph - N/A   Mostly Cloudy
1:51 AM 63.0 °F 43.0 °F 48% 30.07 in 10.0 mi SE 10.4 mph - N/A   Mostly Cloudy
2:51 AM 60.1 °F 44.1 °F 55% 30.06 in 10.0 mi ESE 6.9 mph - N/A   Mostly Cloudy
3:51 AM 59.0 °F 43.0 °F 55% 30.06 in 10.0 mi ESE 10.4 mph - N/A   Mostly Cloudy
4:51 AM 57.0 °F 43.0 °F 59% 30.06 in 10.0 mi ESE 8.1 mph - N/A   Scattered Clouds
5:51 AM 57.0 °F 42.1 °F 57% 30.06 in 10.0 mi ESE 10.4 mph - N/A   Overcast
6:51 AM 55.9 °F 41.0 °F 57% 30.07 in 10.0 mi East 8.1 mph - N/A   Overcast
7:51 AM 55.9 °F 42.1 °F 60% 30.08 in 10.0 mi ESE 11.5 mph - N/A   Overcast
8:51 AM 57.9 °F 39.9 °F 51% 30.08 in 10.0 mi ESE 18.4 mph 21.9 mph N/A   Mostly Cloudy
9:51 AM 60.1 °F 39.0 °F 46% 30.09 in 10.0 mi ESE 19.6 mph 24.2 mph N/A   Mostly Cloudy
10:51 AM 62.1 °F 39.0 °F 43% 30.08 in 10.0 mi ESE 15.0 mph 21.9 mph N/A   Mostly Cloudy
11:51 AM 66.0 °F 42.1 °F 42% 30.06 in 10.0 mi SE 16.1 mph 25.3 mph N/A   Mostly Cloudy
12:51 PM 68.0 °F 44.1 °F 42% 30.04 in 10.0 mi ESE 17.3 mph - N/A   Mostly Cloudy
1:51 PM 69.1 °F 44.1 °F 40% 30.03 in 10.0 mi ESE 11.5 mph 24.2 mph N/A   Mostly Cloudy
2:51 PM 69.1 °F 45.0 °F 42% 30.01 in 10.0 mi ESE 15.0 mph 24.2 mph N/A   Mostly Cloudy
3:51 PM 71.1 °F 44.1 °F 38% 30.00 in 10.0 mi SSE 15.0 mph - N/A   Mostly Cloudy
4:51 PM 72.0 °F 46.0 °F 40% 29.99 in 10.0 mi SE 11.5 mph 20.7 mph N/A   Overcast
5:51 PM 71.1 °F 46.0 °F 41% 29.99 in 10.0 mi ESE 12.7 mph - N/A   Overcast
6:51 PM 70.0 °F 46.9 °F 44% 29.99 in 10.0 mi ESE 8.1 mph - N/A   Overcast
7:51 PM 69.1 °F 44.1 °F 40% 30.00 in 10.0 mi ESE 6.9 mph - N/A   Overcast
8:51 PM 66.0 °F 39.0 °F 37% 30.01 in 10.0 mi ENE 11.5 mph - N/A   Overcast
9:51 PM 62.1 °F 39.0 °F 43% 30.02 in 10.0 mi East 6.9 mph - N/A   Scattered Clouds
10:51 PM 63.0 °F 39.0 °F 41% 30.03 in 10.0 mi East 9.2 mph - N/A   Scattered Clouds
11:51 PM 62.1 °F 41.0 °F 46% 30.02 in 10.0 mi East 11.5 mph - N/A   Scattered Clouds